SCP
1 2 3 4 3 1 0 0 0 0 0 0 0 0 0 0 0 0 0 1 1 1 0 0 0 0 0 0 0 0 0 0 0 0 0 0 0 0 0 0 0 0 0 0 0 0 0 0 0
2 2 3 3 2 1 0 0 0 0 0 0 0 0 0 0 0 0 0 1 1 1 0 0 0 0 0 0 0 0 0 0 0 0 0 0 0 0 0 0 0 0 0 0 0 0 0 0 0
2 3 3 2 1 0 0 0 0 0 0 0 0 0 0 0 0 0 1 1 1 1 1 0 0 0 0 0 0 0 0 0 0 0 0 0 0 0 0 0 0 0 0 0 0 0 0 0 0
3 2 2 1 1 0 0 0 0 0 0 0 0 0 0 0 0 1 1 1 1 1 1 1 0 0 0 0 0 0 0 0 0 0 0 0 0 0 0 0 0 0 0 0 0 0 0 0 0
2 2 1 0 0 0 0 0 0 0 0 0 1 1 1 1 1 1 1 1 1 1 1 1 1 1 1 1 1 1 1 0 0 0 0 0 0 0 0 0 0 0 0 0 0 0 0 0 0
1 1 0 0 0 0 0 0 0 0 0 1 1 2 1 1 1 1 1 1 1 1 1 1 1 1 1 1 1 1 1 0 0 0 0 0 0 0 0 0 0 0 0 0 0 0 0 0 0
1 1 0 0 0 0 0 0 0 0 0 1 1 2 2 2 1 2 2 1 1 2 1 1 1 1 1 1 1 1 1 0 0 0 0 0 0 0 0 0 0 0 0 0 0 0 0 0 0
0 0 0 0 0 0 0 0 0 0 1 1 1 3 3 2 2 2 2 2 2 2 1 1 1 1 1 1 1 1 1 0 0 0 0 0 0 0 0 0 0 0 0 0 0 0 0 1 1
0 0 0 0 0 0 0 0 1 1 1 1 2 3 4 3 3 3 3 3 2 2 2 2 2 2 1 1 1 1 1 0 0 0 0 0 0 0 0 0 0 0 0 0 0 0 1 1 1
0 0 0 0 0 0 0 0 1 1 2 2 2 3 4 4 3 3 3 3 3 2 2 2 3 3 2 2 1 1 1 0 0 0 0 0 0 0 0 0 0 0 0 0 0 1 1 1 1
0 0 0 0 0 0 0 0 1 1 2 3 3 3 3 3 3 3 4 4 3 3 3 3 3 3 4 3 2 1 1 1 1 0 0 0 0 0 1 0 0 0 0 0 0 1 1 1 1
0 0 0 0 0 0 0 0 1 1 2 3 4 3 3 3 3 3 4 4 4 4 3 3 3 3 4 3 2 1 1 1 1 1 0 0 0 1 1 1 0 0 0 0 1 1 1 1 1
0 0 0 0 0 0 1 1 1 1 2 3 4 3 3 3 3 3 5 6 6 5 4 4 4 4 4 3 2 1 1 1 1 1 1 1 1 1 1 1 1 1 1 0 1 1 1 1 1
0 0 0 0 0 1 1 1 1 2 2 3 3 3 3 3 3 4 7 10 9 6 5 5 5 5 4 3 2 2 1 1 1 1 1 1 1 1 1 1 1 1 1 1 1 1 1 1 1
0 0 0 0 0 1 1 1 1 2 2 2 3 3 3 3 4 6 10 11 9 8 7 7 6 5 4 4 3 2 2 1 2 2 2 1 1 1 1 1 1 1 1 1 1 1 1 1 0
0 0 0 0 0 1 1 1 2 2 2 2 2 3 3 4 5 8 10 11 10 10 10 9 6 5 4 4 3 2 2 2 2 3 3 2 2 2 2 1 1 1 1 1 1 1 0 1 1
0 0 0 0 0 0 1 1 1 2 2 2 3 3 4 5 7 8 9 10 11 12 12 9 7 5 4 4 4 3 3 3 4 4 3 2 2 2 2 2 1 1 1 1 1 1 1 1 1
0 0 0 0 0 0 1 1 1 2 2 3 3 3 5 6 7 8 9 11 12 13 11 8 7 6 5 4 4 4 4 4 5 5 4 3 3 3 2 2 1 1 1 1 1 1 1 1 1
0 0 0 0 0 0 1 1 2 2 3 3 3 4 5 6 6 8 9 10 11 10 8 6 6 5 5 5 5 5 5 5 5 5 4 3 3 3 2 1 1 1 1 1 1 1 1 1 1
0 0 0 0 0 0 1 2 2 3 3 3 3 4 4 5 6 8 8 8 8 8 7 6 5 5 5 5 5 5 6 6 5 4 3 3 3 2 2 1 1 1 1 2 2 1 1 1 1
0 0 0 0 0 0 0 1 2 3 3 3 3 3 4 5 7 7 7 7 8 8 7 6 6 6 5 5 5 5 6 6 4 3 3 2 2 2 2 2 1 1 1 2 2 1 1 1 1
0 0 0 0 0 0 0 1 2 3 3 3 3 4 5 6 7 8 7 6 8 8 7 6 7 7 6 5 5 6 6 5 4 3 2 2 2 2 2 2 2 1 1 1 1 1 1 1 1
0 0 0 0 0 0 0 0 1 2 3 3 3 5 6 6 7 7 6 6 7 7 7 6 7 7 7 6 5 5 5 4 4 3 2 2 2 2 2 2 2 2 1 1 1 2 2 1 1
0 0 0 0 0 0 0 0 1 2 3 3 4 5 6 6 7 7 6 6 6 7 7 7 8 8 7 6 5 5 4 4 3 3 2 2 2 2 2 2 3 3 2 2 2 2 2 2 1
0 0 0 0 0 0 0 1 1 2 2 3 4 5 5 5 6 7 6 6 6 7 7 8 9 8 7 6 6 5 4 3 2 2 2 2 2 2 2 2 3 3 3 2 2 2 2 2 2
0 0 0 0 0 0 0 1 1 2 2 4 5 5 5 5 6 6 6 5 5 6 7 8 9 8 7 6 6 5 4 2 2 2 2 2 2 2 2 2 3 3 3 2 2 2 2 2 2
0 0 0 0 0 0 0 1 2 2 3 4 4 4 4 5 5 5 5 5 4 5 6 7 8 7 6 5 5 4 3 2 1 1 1 1 1 1 2 2 2 2 2 2 2 2 2 2 2
0 0 0 0 0 0 0 1 2 2 3 4 4 4 4 4 4 4 4 4 4 4 5 6 6 6 5 4 4 3 2 2 1 1 1 1 1 1 2 2 2 2 2 2 2 2 2 2 2
0 0 0 0 0 0 0 1 1 2 3 4 4 4 4 4 4 4 4 4 5 5 6 6 5 4 4 4 3 3 2 2 2 2 2 2 2 2 2 2 2 2 2 2 2 2 2 2 2
0 0 0 0 0 0 0 1 1 2 3 4 3 4 4 4 4 4 5 5 5 5 6 5 4 4 3 3 3 2 2 2 2 2 2 2 2 2 2 2 2 2 2 2 2 2 2 2 2
Wind_Speed
11 13 10 7 3 5 16 18 17 16 16 14 15 15 18 17 13 14 15 21 21 18 16 14 13 13 13 13 13 13 13 12 12 12 11 12 12 12 13 13 13 13 14 14 14 14 14 14 13
11 13 7 3 1 10 14 15 15 14 13 13 16 18 19 18 17 16 17 19 21 18 16 15 14 14 13 13 12 12 12 12 12 11 11 11 11 12 12 13 13 13 14 14 14 14 13 13 12
13 15 6 2 8 12 14 14 14 12 12 14 17 18 15 14 15 15 16 19 19 18 16 15 15 14 13 13 12 11 11 11 11 11 11 11 11 11 12 12 13 13 13 13 14 13 13 12 11
10 6 3 3 13 14 13 12 12 11 13 14 14 14 14 12 15 17 18 19 20 18 17 15 15 14 13 13 12 11 11 11 10 10 10 11 11 11 12 12 12 13 13 13 13 13 12 11 9
8 4 1 7 13 12 12 12 13 13 15 16 17 16 15 15 18 17 16 19 18 18 17 16 15 14 13 13 12 11 11 11 10 10 10 11 11 11 11 12 12 13 13 13 12 12 11 10 8
4 3 1 7 11 11 11 10 11 12 12 14 17 16 13 14 15 14 15 16 18 19 17 15 15 14 13 12 12 11 11 11 10 10 10 11 11 11 11 12 12 12 13 12 12 11 10 8 6
5 3 1 7 11 10 10 9 9 10 11 11 14 15 12 14 13 13 14 14 17 19 17 14 14 13 12 12 11 11 11 10 10 10 11 11 11 11 12 11 11 12 12 12 11 11 9 7 4
4 4 3 5 9 10 9 9 9 10 9 8 10 12 13 15 14 14 13 13 15 16 16 14 14 13 11 11 11 11 10 10 10 10 10 11 11 11 12 11 10 11 11 11 11 10 8 6 4
3 2 3 5 8 9 7 7 8 9 9 10 11 14 18 19 17 15 13 12 12 13 12 13 13 12 11 11 11 11 10 9 10 9 10 9 7 8 8 11 11 11 11 10 9 9 8 6 4
2 1 2 5 7 7 6 5 6 7 8 9 12 16 20 18 17 16 14 14 13 12 11 9 11 11 10 10 9 7 7 7 6 6 7 4 3 4 8 11 11 10 10 9 8 8 7 5 3
3 1 2 4 6 5 3 3 6 8 5 7 13 17 18 18 16 15 14 14 13 12 10 10 10 8 8 7 7 4 4 4 4 5 5 4 4 5 6 5 6 6 8 6 6 6 4 4 1
4 3 3 4 4 2 3 2 3 6 6 9 14 17 17 17 15 14 14 13 13 11 10 10 9 7 5 6 6 5 4 4 4 4 4 4 2 3 5 3 4 4 3 3 3 2 2 2 2
5 3 3 3 1 2 3 2 2 5 6 10 15 16 16 16 14 12 12 12 12 11 9 9 9 7 5 4 3 5 5 5 5 4 3 4 3 3 4 3 3 3 3 3 2 1 2 1 1
7 7 5 4 2 0 2 3 1 4 6 11 13 14 15 15 15 13 12 12 12 11 9 9 9 7 5 4 2 3 5 4 5 5 5 4 3 3 4 4 2 2 2 3 2 3 2 1 1
7 10 9 6 3 2 0 3 2 5 7 9 11 12 13 13 13 14 13 12 12 10 9 9 9 9 6 6 5 4 4 5 4 4 5 4 3 4 3 3 2 2 3 3 2 2 2 2 2
11 11 8 5 3 3 2 2 2 5 7 8 9 11 11 11 12 13 13 11 11 11 10 9 9 10 8 5 4 3 3 4 4 4 4 4 4 4 3 3 2 2 2 2 2 1 2 2 1
12 9 6 4 3 2 3 3 6 5 6 8 8 9 11 11 11 12 13 12 11 11 10 9 7 9 9 7 5 3 2 3 3 4 4 4 5 4 3 2 2 2 2 2 3 3 1 1 1
7 6 3 2 3 2 3 3 6 6 5 7 8 9 10 11 11 13 12 12 11 10 9 9 8 8 8 6 4 2 3 2 2 3 4 5 4 5 4 3 3 3 2 2 1 1 1 1 2
10 9 6 2 2 4 6 3 4 5 5 7 8 9 10 10 11 12 12 12 12 10 10 9 9 8 6 5 5 4 4 3 2 3 5 6 5 5 4 2 3 3 2 3 3 2 3 2 2
9 10 9 5 1 4 8 6 3 5 5 6 7 9 10 10 11 12 12 12 12 11 11 10 9 9 7 5 4 3 3 3 3 3 4 6 5 5 5 3 3 3 2 3 3 2 1 2 2
9 10 9 7 5 7 10 9 6 5 5 6 8 9 10 11 13 13 12 12 12 12 11 10 9 9 8 7 5 4 3 2 3 3 4 5 5 6 4 5 4 3 3 3 3 3 3 3 2
10 9 8 9 9 9 8 6 4 7 6 7 8 9 10 10 12 13 12 12 12 11 11 9 9 8 8 7 7 7 5 5 5 4 4 5 5 5 5 5 4 4 3 3 4 4 3 3 3
11 7 7 9 10 11 11 8 3 7 7 6 6 7 9 9 11 12 11 10 10 10 10 10 9 8 8 7 7 6 5 4 3 3 5 5 5 5 5 4 4 3 3 4 4 3 4 3 3
8 8 9 10 10 12 11 8 3 3 5 6 8 8 8 9 10 10 10 10 9 9 9 10 9 8 8 8 7 6 6 5 4 4 4 4 4 4 5 5 4 4 4 4 3 3 4 3 3
10 9 7 8 8 7 7 6 3 7 6 5 8 8 8 9 10 10 10 10 9 10 10 10 10 9 8 7 7 6 6 5 5 4 4 4 3 3 4 5 4 4 4 4 4 4 4 4 4
12 13 10 8 5 1 4 4 3 9 8 6 8 9 9 10 10 10 9 9 8 9 9 10 9 8 8 7 6 5 5 4 3 4 3 3 3 3 4 4 4 5 4 5 4 3 4 3 4
13 13 15 14 14 9 5 4 6 7 8 7 10 10 10 9 10 10 9 8 8 8 8 9 9 8 7 7 5 4 4 3 3 2 3 2 2 2 3 4 4 4 4 4 4 3 4 3 4
16 12 8 10 9 10 6 4 2 6 6 7 9 10 10 10 10 10 9 9 8 8 7 8 8 7 6 6 5 4 4 4 3 2 3 2 2 1 2 2 3 3 3 4 4 4 3 3 3
14 14 11 8 8 9 6 1 3 7 6 7 8 9 10 10 10 9 8 9 9 9 9 8 7 6 6 5 4 3 3 3 3 3 2 2 2 2 2 2 2 2 3 3 3 4 4 4 3
14 14 13 9 8 8 8 1 7 7 6 6 8 8 9 9 10 10 9 9 9 9 9 8 7 7 6 5 4 3 2 3 2 2 1 1 1 1 1 1 1 2 2 2 2 3 3 3 3
Wind_Direction
266 254 238 257 263 64 66 64 64 65 64 58 56 66 61 56 73 93 111 111 114 116 119 116 111 110 110 110 111 110 108 106 103 100 98 97 97 97 97 97 98 98 100 100 100 99 98 98 99
280 273 253 249 67 75 72 71 69 68 72 71 67 72 74 73 86 103 111 116 119 123 124 116 115 113 112 112 112 112 111 108 106 104 102 101 100 100 100 100 99 99 101 102 103 103 102 101 101
266 263 263 215 77 75 75 77 79 75 78 80 73 66 71 87 99 110 120 124 121 118 114 118 119 116 114 114 114 113 112 111 110 108 106 106 104 103 103 103 102 102 104 104 104 105 104 103 104
271 268 254 75 81 77 76 82 87 82 77 78 85 80 76 85 107 119 130 126 119 120 120 122 122 119 118 117 116 115 114 112 110 109 109 108 108 107 105 105 105 104 103 104 104 104 104 104 105
264 278 287 86 82 84 80 79 83 79 78 79 86 91 90 94 111 128 133 125 127 123 122 126 125 124 122 120 118 116 115 114 113 111 110 110 110 108 107 107 107 106 104 104 104 105 105 105 105
289 284 298 94 91 85 87 85 82 82 90 100 105 103 103 115 125 136 130 127 126 123 123 127 128 127 125 123 121 119 119 118 118 116 115 113 111 109 110 110 109 108 107 108 107 108 107 105 101
274 287 27 90 98 91 85 87 84 87 84 89 105 108 124 132 136 136 127 125 124 125 129 138 138 133 130 129 126 123 122 123 122 122 121 120 118 117 115 113 113 112 112 112 110 110 110 109 105
295 324 30 87 91 89 81 83 84 89 86 91 108 123 140 139 145 135 129 124 122 129 135 143 145 142 145 138 134 131 130 131 131 131 131 130 127 126 125 122 118 118 118 118 117 117 118 120 119
311 333 2 59 79 89 91 88 90 91 90 75 67 111 136 145 147 141 138 129 130 131 138 147 143 150 151 144 140 141 141 141 143 144 145 147 149 141 141 120 125 125 126 128 128 128 133 141 160
313 330 32 43 59 75 92 96 103 95 90 96 96 111 134 148 152 155 153 147 146 141 140 143 143 151 151 140 141 153 155 153 170 150 157 171 150 131 121 128 134 135 136 139 144 147 157 182 181
300 333 18 55 58 40 56 91 106 106 105 137 134 137 148 155 162 162 159 156 152 147 146 149 143 148 143 132 149 152 146 150 161 151 158 157 144 134 129 140 142 148 157 161 153 174 192 196 178
292 335 357 5 49 14 20 19 76 94 109 137 139 148 156 164 169 165 160 155 149 150 151 148 135 133 131 136 143 151 149 152 156 159 168 147 154 149 142 149 157 164 170 159 172 189 178 142 148
271 299 304 301 291 13 351 345 68 96 121 127 133 148 159 169 169 164 153 149 147 150 151 142 130 127 125 123 154 153 147 156 153 156 158 155 155 144 139 140 156 170 155 163 174 152 129 115 126
313 305 288 277 280 213 318 287 173 125 130 129 137 149 160 165 162 157 151 152 151 152 151 142 136 135 137 148 161 138 147 150 159 160 157 164 147 130 135 145 157 156 150 157 161 157 152 172 140
281 274 264 240 229 171 57 289 200 142 137 138 148 154 155 159 160 157 157 157 155 153 150 144 148 148 160 173 180 167 166 165 158 145 146 154 152 140 147 143 165 157 151 148 159 158 165 185 175
256 254 252 221 193 165 181 215 159 138 145 145 151 153 152 154 160 157 156 156 154 154 152 158 167 159 170 180 193 174 174 157 144 144 146 157 153 159 152 155 167 155 156 153 164 197 191 190 182
244 241 238 186 174 220 226 185 148 162 156 147 152 151 151 153 159 153 155 158 157 157 156 163 163 162 170 178 183 198 165 153 149 151 154 163 167 163 172 163 149 169 156 169 193 182 195 176 201
287 274 242 218 140 285 274 181 158 165 166 154 157 155 157 161 163 156 157 159 157 157 158 163 168 169 168 172 175 201 172 159 158 156 155 166 177 173 185 177 171 190 164 172 203 157 182 193 215
302 306 303 309 52 305 292 258 181 165 171 157 159 158 162 163 160 154 156 160 161 161 165 170 175 170 170 175 180 188 181 177 182 172 163 175 188 181 191 189 167 195 179 183 190 193 199 213 212
278 281 282 279 164 283 286 279 213 181 185 166 166 164 164 165 158 154 158 165 169 170 172 174 178 173 178 179 176 181 178 183 189 181 173 183 185 180 185 187 192 190 187 191 203 201 213 227 208
263 269 282 300 302 268 266 256 209 186 183 168 173 167 166 168 162 160 167 172 176 177 179 181 180 175 182 175 177 182 173 188 185 181 184 191 183 189 195 182 200 194 194 190 201 202 213 236 244
257 262 278 290 285 285 273 277 169 162 184 183 177 166 161 161 160 163 170 175 179 179 179 176 174 176 181 179 185 186 187 191 193 187 185 189 190 196 196 188 195 200 216 194 202 201 210 218 240
262 303 300 283 276 277 274 272 195 173 177 177 159 148 146 152 157 162 170 173 175 176 176 173 171 178 182 186 186 191 197 199 193 191 182 186 188 194 201 193 192 201 216 216 222 196 208 219 229
262 271 270 265 266 258 256 259 224 139 148 154 144 140 138 148 146 150 162 162 168 173 172 169 170 176 179 186 186 192 198 195 201 200 186 191 187 190 199 197 199 209 219 221 218 215 215 231 246
231 245 251 239 237 256 263 245 157 120 118 126 134 134 133 139 142 149 157 162 168 170 170 168 168 174 178 186 189 193 199 197 206 212 201 196 191 192 198 199 195 206 215 217 210 214 225 222 236
216 233 249 269 269 284 259 247 135 117 113 119 130 132 137 144 146 149 155 159 164 167 167 165 165 170 175 182 190 194 197 200 210 214 213 207 202 194 192 197 200 203 210 220 210 211 221 222 229
234 228 250 267 278 270 220 203 143 127 138 142 135 138 146 145 141 144 149 152 157 162 160 159 159 163 170 175 174 187 193 201 214 210 213 221 220 208 195 199 204 207 213 222 211 218 224 215 222
247 250 248 257 279 286 267 238 151 149 155 141 144 148 145 142 143 143 143 147 148 149 147 146 149 153 158 160 169 175 179 185 196 204 208 209 212 209 198 196 204 207 211 216 213 219 224 219 225
221 243 260 275 268 273 284 27 108 157 183 163 152 145 143 153 147 142 141 138 136 139 141 140 144 149 153 155 164 172 174 180 182 188 200 204 206 202 205 203 201 204 210 213 212 223 219 217 225
237 227 233 245 263 273 278 215 159 161 171 151 138 133 142 144 142 140 142 139 141 143 142 144 153 156 158 159 164 168 164 165 172 178 182 184 182 191 185 189 194 209 215 216 214 227 220 211 221